Weather History for Beaufort MCAS, SC

Change the Weather History Date:

Thursday, February 2, 2012

  Actual Average Record
Temperature  
Mean Temperature 65 °F -  
Max Temperature 77 °F 62 °F 64 °F (2014)
Min Temperature 52 °F 44 °F 48 °F (2014)
Growing Degree Days 15 (Base 50)    
Moisture  
Dew Point 52 °F    
Average Humidity 71    
Maximum Humidity 93    
Minimum Humidity 34    
Precipitation  
Precipitation 0.00 in - - ()
Sea Level Pressure  
Sea Level Pressure 30.15 in    
Wind  
Wind Speed 6 mph (WSW)    
Max Wind Speed 14 mph    
Max Gust Speed 21 mph    
Visibility 10 miles    
Events      
Averages and records for this station are not official NWS values.
T = Trace of Precipitation, MM = Missing Value Source: NWS Daily Summary

Daily Weather History Graph

Daily Weather History Graph

Search for Another Location

Airport:

Trip Planner

Search our weather history database for the weather conditions in past years. The results will help you decide how hot, cold, wet, or windy it might be!

Date:

Astronomy

Feb. 02, 2012 Rise Set
Actual Time 7:16 AM EST 5:56 PM EST
Civil Twilight 6:51 AM EST 6:22 PM EST
Nautical Twilight 6:21 AM EST 6:51 PM EST
Astronomical Twilight 5:52 AM EST 7:20 PM EST
Moon 1:13 PM EST (2/2) 2:51 AM EST (2/2)
Length of Visible Light 11h 31m
Length of Day
10h 39m
Waxing Gibbous, 73% of the Moon is Illuminated
Feb 2
Waxing Gibbous
Feb 7
Full
Feb 14
Last Quarter
Feb 21
New
Feb 29
First Quarter

Hourly Weather History & Observations

Time (EST) Temp. Dew Point Humidity Pressure Visibility Wind Dir Wind Speed Gust Speed Precip Events Conditions
12:56 AM 60.1 °F 55.9 °F 86% 30.14 in 10.0 mi South 4.6 mph - 0.00 in   Mostly Cloudy
1:56 AM 60.1 °F 55.9 °F 86% 30.13 in 10.0 mi South 3.5 mph - N/A   Mostly Cloudy
2:56 AM 62.1 °F 57.0 °F 84% 30.13 in 10.0 mi SSW 8.1 mph - N/A   Overcast
3:56 AM 61.0 °F 57.0 °F 87% 30.12 in 10.0 mi South 4.6 mph - N/A   Overcast
4:56 AM 61.0 °F 55.9 °F 83% 30.12 in 10.0 mi SW 5.8 mph - N/A   Mostly Cloudy
5:49 AM 59.0 °F 55.4 °F 88% 30.11 in 10.0 mi SSW 3.5 mph - N/A   Mostly Cloudy
5:56 AM 59.0 °F 55.0 °F 87% 30.12 in 10.0 mi SSW 5.8 mph - N/A   Mostly Cloudy
6:23 AM 57.2 °F 53.6 °F 88% 30.11 in 10.0 mi South 4.6 mph - N/A   Scattered Clouds
6:56 AM 55.9 °F 54.0 °F 93% 30.13 in 10.0 mi Calm Calm - N/A   Scattered Clouds
7:56 AM 57.9 °F 55.0 °F 90% 30.15 in 10.0 mi SW 4.6 mph - N/A   Mostly Cloudy
8:03 AM 59.0 °F 55.4 °F 88% 30.15 in 10.0 mi SW 5.8 mph - N/A   Mostly Cloudy
8:56 AM 61.0 °F 55.9 °F 83% 30.17 in 10.0 mi WSW 9.2 mph - N/A   Mostly Cloudy
9:36 AM 64.4 °F 55.4 °F 73% 30.17 in 10.0 mi WSW 11.5 mph - N/A   Scattered Clouds
9:56 AM 64.9 °F 55.9 °F 73% 30.17 in 10.0 mi WSW 11.5 mph 19.6 mph N/A   Scattered Clouds
10:56 AM 69.1 °F 55.0 °F 61% 30.17 in 10.0 mi West 13.8 mph 19.6 mph N/A   Scattered Clouds
11:56 AM 71.1 °F 54.0 °F 55% 30.14 in 10.0 mi WSW 13.8 mph 20.7 mph N/A   Clear
12:56 PM 73.9 °F 53.1 °F 48% 30.12 in 10.0 mi West 9.2 mph - N/A   Scattered Clouds
1:56 PM 75.9 °F 51.1 °F 42% 30.10 in 10.0 mi West 10.4 mph - N/A   Scattered Clouds
2:56 PM 77.0 °F 48.9 °F 37% 30.09 in 10.0 mi West 12.7 mph - N/A   Scattered Clouds
3:56 PM 77.0 °F 46.9 °F 34% 30.09 in 10.0 mi NW 8.1 mph - N/A   Scattered Clouds
4:56 PM 75.9 °F 46.0 °F 35% 30.10 in 10.0 mi WNW 6.9 mph - N/A   Clear
5:56 PM 72.0 °F 46.0 °F 40% 30.13 in 10.0 mi Calm Calm - N/A   Clear
6:56 PM 62.1 °F 50.0 °F 65% 30.15 in 10.0 mi Calm Calm - N/A   Clear
7:56 PM 57.9 °F 48.9 °F 72% 30.17 in 10.0 mi Calm Calm - N/A   Clear
8:56 PM 57.0 °F 48.0 °F 72% 30.20 in 10.0 mi NW 3.5 mph - N/A   Clear
9:56 PM 57.0 °F 46.9 °F 69% 30.23 in 10.0 mi Calm Calm - N/A   Clear
10:56 PM 53.1 °F 46.9 °F 80% 30.25 in 10.0 mi Calm Calm - N/A   Clear
11:56 PM 52.0 °F 46.0 °F 80% 30.25 in 10.0 mi NNW 3.5 mph - N/A   Clear